Location: Whatlington
(50.9167°N, 0.5000°E)
Time: 11:30:07
(UTC+00:00)

Daily predictions for brighter satellites

Satellite Brightness Start Highest point End
(mag) Time Altitude Azimuth Time Altitude Azimuth Time Altitude Azimuth
SAR-Lupe-2 3.5 18:41:49 10° SSE 18:45:22 70° ENE 18:48:57 10° N
Cosmos 1315 Rocket 4.5 18:43:16 10° NNE 18:45:53 17° ENE 18:48:29 10° ESE
Cosmos 1125 Rocket 4.2 18:44:54 10° NNW 18:49:44 37° NE 18:54:32 10° ESE
ATLAS 2AS CENTAUR R/B 4.0 18:42:57 10° W 18:49:44 41° NNW 18:56:16 10° NE
Meteor PRIRODA 3.5 18:46:56 10° SSE 18:50:08 54° ENE 18:53:23 10° N
Cosmos 1842 3.5 18:47:56 10° N 18:51:22 40° ENE 18:54:47 10° SE
USA 59 Rocket 0.1 18:49:09 10° NW 18:52:51 77° SW 18:57:55 10° SE
Cosmos 1536 3.9 18:51:45 10° SE 18:54:44 22° E 18:57:43 10° NE
Cosmos 1707 3.1 18:51:52 10° N 18:55:11 36° ENE 18:58:29 10° SE
Cosmos 1515 Rocket 4.3 18:51:25 10° N 18:55:22 33° ENE 18:59:17 10° SE
Cosmos 2061 Rocket 4.2 18:49:29 10° S 18:55:56 88° WNW 19:02:25 10° N
COSMOS 2428 2.8 18:50:28 10° S 18:56:01 56° ESE 19:01:38 10° NE
Cosmos 1818 3.6 18:55:32 10° SW 19:01:00 89° SE 19:06:33 10° NE
Okean O Rocket 2.7 18:58:12 10° ESE 19:01:55 27° ENE 19:05:38 10° N
Cosmos 2278 Rocket 2.2 19:00:06 10° NNW 19:05:48 74° ENE 19:11:28 10° SE
DMSP B5D1-3 4.5 19:02:24 10° NNE 19:07:30 81° ESE 19:12:35 10° SSW
USA 306 2.2 19:04:30 10° SW 19:07:33 65° SSE 19:11:09 10° ENE
CZ-4B DEB 4.2 19:04:12 10° SSE 19:09:43 85° ENE 19:15:15 10° NNW
CZ-4 R/B 1.2 19:06:53 10° SSE 19:10:41 71° ENE 19:14:35 10° N
NOSS 2-1 (C) 4.2 19:09:32 10° NW 19:13:11 52° SW 19:18:06 10° SSE
CZ-4B R/B 3.3 19:08:55 10° SE 19:14:14 57° ENE 19:19:29 10° N
Cosmos 1766 Rocket 3.5 19:10:22 10° S 19:14:42 73° E 19:19:06 10° NNE
Meteor 2-17 Rocket 4.4 19:09:15 10° N 19:15:19 70° ENE 19:21:21 10° SSE
Helios 1A 2.9 19:12:10 10° NNE 19:16:13 62° ESE 19:20:14 10° S
Resurs 01 Rocket 1.7 19:11:55 10° SSE 19:16:15 58° ENE 19:20:37 10° N
USA 290 2.3 19:13:02 10° NNW 19:16:19 80° WSW 19:19:37 10° SSE
YAOGAN 1 4.5 19:14:55 10° SSW 19:18:47 32° W 19:22:41 10° NNW
ADEOS 3.9 19:13:44 10° S 19:18:55 69° WSW 19:24:09 10° NNW
GEOS 3 Rocket 3.7 19:14:18 10° SE 19:19:31 78° SW 19:24:44 10° NW
USA 186 1.8 19:18:19 10° SSE 19:21:30 63° ENE 19:24:44 10° N
CZ-4B R/B 3.9 19:17:03 10° S 19:21:45 62° WSW 19:26:34 10° NNW
KORONAS-FOTON 3.7 19:18:35 10° NNW 19:22:18 84° W 19:25:59 10° S
Cosmos 1814 Rocket 4.0 19:17:05 10° SSW 19:22:22 78° ESE 19:27:38 10° NNE
Cosmos 2360 Rocket 4.0 19:17:25 10° WSW 19:22:31 33° NW 19:27:37 10° NNE
PAYLOAD B 4.3 19:17:15 10° SSE 19:22:51 84° ENE 19:28:29 10° NNW
Cosmos 1743 3.8 19:19:50 10° SSW 19:23:15 44° WNW 19:26:42 10° N
SPOT 5 3.8 19:22:15 15° ESE 19:24:56 26° ENE 19:28:36 10° N
Okean-O 3.7 19:23:05 16° ESE 19:25:41 27° ENE 19:29:25 10° N
SKYMED 3 4.5 19:22:59 10° NNE 19:27:08 86° WNW 19:31:15 10° SSW
USA 267 3.8 19:21:45 10° ENE 19:28:03 53° N 19:34:23 10° WNW
Cosmos 1408 Rocket 4.2 19:24:56 10° SSE 19:28:52 34° E 19:32:52 10° NNE
ISS -2.8 19:26:26 10° SSW 19:29:23 29° SSE 19:30:43 22° ESE
SPOT 1/Viking Rocket 4.2 19:25:00 10° S 19:30:05 59° W 19:35:13 10° NNW
CZ-4B R/B 3.0 19:26:54 10° S 19:30:46 74° WSW 19:34:51 10° NNW
Kosmos-1783 2.8 19:30:06 10° WSW 19:32:10 47° NW 19:33:12 18° NNE
SL-08 R/B 3.6 19:27:51 10° NNE 19:32:48 75° WNW 19:37:41 10° SSW
Cosmos 2237 Rocket 2.4 19:29:43 10° S 19:35:04 47° ESE 19:40:26 10° NE
Cosmos 2322 Rocket 4.5 19:30:30 10° W 19:35:12 26° NW 19:39:56 10° NNE
Aureole 3 Rocket 4.3 19:31:56 10° SSE 19:37:54 36° E 19:42:21 10° NNE
CSL-04 Rocket 3.6 19:32:40 10° SSE 19:38:00 77° ENE 19:43:19 10° NNW
Cosmos 2219 Rocket 3.6 19:34:26 10° WSW 19:39:48 42° NW 19:45:11 10° NNE
Cosmos 1674 4.3 19:37:00 10° NNW 19:40:00 31° W 19:42:57 10° SSW
Cosmos 1356 Rocket 3.7 19:38:06 10° NNW 19:42:17 69° W 19:46:26 10° S
Meteor 1-14 Rocket 4.2 19:38:21 10° SSW 19:43:53 84° WNW 19:49:28 10° NNE
Lacrosse 4 Rocket 4.2 19:41:07 10° WNW 19:43:55 17° WSW 19:46:43 10° SSW
Meteor 1-4 Rocket 3.9 19:42:57 10° NW 19:45:17 27° W 19:47:37 10° SSW
SJ-6B 4.5 19:43:16 10° SSW 19:46:31 31° W 19:49:47 10° NNW
Meteor 1-11 Rocket 3.7 19:41:26 10° S 19:46:55 58° E 19:52:21 10° NNE
MOS 1 Rocket 4.3 19:45:38 22° ESE 19:48:13 35° ENE 19:53:01 10° N
CARTOSAT-1 3.8 19:47:03 10° S 19:51:17 67° WSW 19:55:32 10° NNW
ATLAS CENTAUR R/B 1.4 19:48:32 10° SSW 19:51:53 40° ESE 19:54:53 13° NE
Cosmos 158 Rocket 4.0 19:47:21 10° S 19:52:01 49° ESE 19:56:43 10° NNE
NOSS 3-4 (A) 4.2 19:46:05 10° NW 19:52:22 49° NNE 19:57:11 21° E
NOSS 3-4 (C) 4.2 19:46:12 10° NW 19:52:29 49° NNE 19:57:17 21° E
Cosmos 1805 Rocket 3.9 19:52:47 23° SSE 19:54:57 40° E 19:59:02 10° NNE
Cosmos 1428 Rocket 4.4 19:51:19 10° N 19:57:26 67° ENE 20:02:18 16° SSE
Cosmos 1733 2.9 19:55:46 10° S 19:59:12 86° WNW 20:02:39 10° N
In-Cosmos 22 4.3 19:54:25 10° NNW 20:00:09 79° W 20:05:43 10° S
USA 276 3.4 19:58:01 10° W 20:00:20 23° SSW 20:00:38 22° SSW
Cosmos 2369 Rocket 3.1 19:57:28 10° NNW 20:02:43 35° NE 20:05:12 25° E
Cosmos 1980 3.6 19:58:52 10° SSW 20:04:32 80° ESE 20:10:15 10° NNE
SWARM A 4.4 20:03:48 14° S 20:06:41 80° W 20:10:13 10° N
Meteor 1-21 4.5 20:02:03 10° N 20:07:41 52° ENE 20:10:23 29° SE
Cosmos 1943 Rocket 2.6 20:04:26 10° NW 20:09:51 59° WSW 20:14:05 17° S
Sich 1 3.0 20:07:33 23° S 20:10:06 60° E 20:14:22 10° NNE
Cosmos 1707 Rocket 4.4 20:06:34 10° N 20:10:36 32° ENE 20:11:05 32° E
DELTA 2 DEB (DPAF) 4.4 20:07:43 10° NNE 20:11:40 39° E 20:11:47 39° ESE
NOSS 0 Rocket 4.1 20:06:52 10° SW 20:13:06 76° WNW 20:19:24 10° NNE
Cosmos 2298 Rocket 3.9 20:08:25 10° NNW 20:13:45 84° ENE 20:16:27 30° SSE
Nadezhda 4 Rocket 4.2 20:08:32 10° NNW 20:14:47 72° W 20:21:02 10° S
Terra 2.4 20:13:52 34° E 20:14:53 38° ENE 20:19:15 10° N
Cosmos 2195 Rocket 4.4 20:08:48 10° N 20:14:57 79° E 20:19:12 21° SSE
Cosmos 2150 Rocket 3.9 20:10:16 10° NNW 20:15:28 86° ENE 20:17:56 32° SSE
ACS3 Solar Sail 1.9 20:09:35 12° SSE 20:15:33 84° WSW 20:22:01 10° NNW
ERS-1 Rocket 3.3 20:14:03 35° ESE 20:15:38 46° ENE 20:20:27 10° N
USA 32 3.9 20:10:56 10° N 20:16:12 79° E 20:19:24 24° SSE
Cosmos 1570 Rocket 3.9 20:11:58 10° SSW 20:17:15 88° ESE 20:22:33 10° NNE
Cosmos 1975 3.4 20:18:59 38° ENE 20:18:59 38° ENE 20:22:04 10° NNE
OPS 6432 4.0 20:18:00 10° NW 20:21:12 87° SW 20:21:14 86° S
Cosmos 2026 Rocket 3.9 20:16:02 10° N 20:22:18 76° E 20:25:51 27° SSE
Cosmos 1315 Rocket 3.3 20:18:24 10° NNW 20:22:18 56° W 20:24:27 24° SSW
Cosmos 1805 2.9 20:21:37 54° S 20:22:22 77° E 20:26:02 10° NNE
Cosmos 1092 Rocket 4.0 20:16:26 10° N 20:22:47 75° E 20:26:28 27° SSE
Ariane Rocket 3.7 20:24:21 33° E 20:25:15 36° ENE 20:29:51 10° N
Meteor 2-12 Rocket 4.4 20:19:56 10° N 20:26:05 68° ENE 20:28:56 33° SSE
Cosmos 836 Rocket 4.4 20:22:31 10° SSW 20:27:47 74° ESE 20:33:05 10° NNE
IRS-1A Rocket 4.3 20:26:28 36° SE 20:28:53 68° ENE 20:34:31 10° NNW
Cosmos 1536 4.3 20:26:54 10° SW 20:30:25 35° WNW 20:33:58 10° N
Okean 3 4.0 20:29:06 10° N 20:32:45 40° ENE 20:32:45 40° ENE
SL-16 R/B 2.4 20:35:16 44° ESE 20:35:28 44° ESE 20:40:50 10° NE
Okean O Rocket 2.7 20:35:02 18° SSW 20:37:59 42° W 20:42:13 10° NNW
Cosmos 1634 Rocket 3.9 20:36:32 30° SSE 20:39:45 66° E 20:46:03 10° NNE
Cosmos 1656 Rocket 3.6 20:34:06 10° NNW 20:39:48 74° ENE 20:41:19 49° SE
SL-14 R/B 3.5 20:36:13 10° NNW 20:39:59 63° W 20:40:36 53° SW
USA 306 3.0 20:36:54 10° W 20:40:15 54° N 20:40:35 51° NNE
COSMOS 2428 4.4 20:35:23 10° WSW 20:40:34 34° NW 20:45:48 10° NNE
USA 59 Rocket 2.9 20:40:11 10° W 20:42:08 13° WSW 20:44:19 10° SW
ATLAS 2AS CENTAUR R/B 4.3 20:36:25 10° WNW 20:42:26 28° N 20:48:15 10° ENE
CZ-4 R/B 4.3 20:44:01 10° WSW 20:45:42 12° W 20:47:24 10° WNW
Okean 2 4.5 20:42:02 10° N 20:44:49 32° NE 20:44:49 32° NE
IRS-1C Rocket 4.0 20:45:02 50° SSE 20:46:28 83° ENE 20:51:46 10° NNW
Cosmos 773 Rocket 3.9 20:45:39 36° S 20:47:48 71° ESE 20:53:06 10° NNE
Cosmos 2278 Rocket 4.3 20:45:04 10° NW 20:49:18 22° WSW 20:53:32 10° SSW
Okean 1-7 4.1 20:45:29 10° N 20:48:39 33° NE 20:48:39 33° NE
Cosmos 839 Rocket 4.5 20:41:08 10° SW 20:49:34 80° NW 20:56:20 10° NE
Cosmos 2263 4.5 20:45:17 10° NNW 20:50:55 53° NE 20:51:55 47° E
Cosmos 1500 Rocket 4.4 20:47:41 13° SSW 20:51:28 50° WNW 20:55:43 10° N
Resurs 01 Rocket 4.1 20:49:53 10° SW 20:53:02 19° W 20:56:13 10° NW
Cosmos 2228 Rocket 3.0 20:50:29 10° N 20:55:05 87° E 20:55:20 80° SSE
Cosmos 1743 Rocket 4.1 20:56:20 31° SW 20:58:10 56° WNW 21:02:27 10° N
SPOT 3 Rocket 3.5 21:00:55 64° E 21:01:14 65° ENE 21:06:20 10° N
Okean-O 3.7 21:00:31 32° SW 21:01:54 41° W 21:06:05 10° NNW
SPOT 5 3.6 21:01:22 34° SW 21:02:46 45° W 21:07:04 10° NNW
Cosmos 2142 Rocket 4.5 21:02:36 55° ESE 21:03:03 57° E 21:09:04 10° NNE
ISS -1.4 21:02:35 10° WSW 21:03:42 20° WSW 21:03:42 20° WSW
NOSS 3-3 (C) 3.8 21:00:41 10° SW 21:06:12 86° NW 21:12:48 10° NE
USA 267 3.4 21:08:22 42° E 21:10:40 69° NNE 21:17:10 10° WNW
Cosmos 724 4.3 21:15:31 61° ENE 21:15:31 61° ENE 21:20:29 10° NE
Cosmos 2180 Rocket 4.5 21:17:01 62° ESE 21:17:24 63° E 21:23:41 10° NNE
Cosmos 2237 Rocket 3.6 21:14:02 10° WSW 21:19:15 38° NW 21:24:31 10° NNE
NOSS 3-3 (A) 4.0 21:14:54 10° SW 21:20:26 71° NW 21:27:04 10° NE
Cosmos 2279 Rocket 3.9 21:20:00 59° S 21:21:17 87° E 21:27:33 10° N
Cosmos 1607 3.9 21:18:08 10° SW 21:24:36 85° SE 21:31:05 10° NE
Cosmos 2297 3.9 21:22:59 10° NW 21:28:33 60° WSW 21:28:59 58° SW
ATLAS CENTAUR R/B 2.9 21:26:06 10° W 21:29:22 30° NW 21:29:51 29° NNW
Spot 2 Rocket 3.7 21:31:06 60° WSW 21:31:13 60° WSW 21:36:13 10° NNW
Cosmos 1633 Rocket 4.2 21:43:08 42° NNW 21:43:08 42° NNW 21:46:15 10° N
NOSS 3-4 (A) 4.0 21:36:53 10° NW 21:43:35 62° SW 21:44:37 56° SSW
NOSS 3-4 (C) 4.0 21:37:00 10° NW 21:43:42 62° SW 21:44:43 57° SSW
Cosmos 2369 Rocket 2.6 21:41:25 10° NW 21:46:58 54° WSW 21:46:58 54° WSW
Terra 3.2 21:52:34 32° W 21:52:34 32° W 21:56:45 10° NNW
ERS-1 Rocket 4.4 21:53:59 28° WSW 21:54:34 29° W 21:58:56 10° NNW
ACS3 Solar Sail 4.1 21:56:27 10° WSW 22:00:33 17° W 22:04:41 10° NW
Ariane Rocket 4.1 22:04:29 38° W 22:04:29 38° W 22:08:53 10° NNW
Cosmos 2266 Rocket 4.2 22:03:25 10° NNW 22:09:36 64° W 22:09:40 64° W
SL-16 R/B 3.3 22:17:01 26° W 22:19:40 41° NW 22:25:01 10° NNE
ATLAS 2AS CENTAUR R/B 3.6 22:28:36 10° NW 22:35:07 41° NNE 22:36:31 37° NE
Cosmos 1943 4.2 22:41:44 41° NNE 22:41:44 41° NNE 22:45:25 10° NNE
Cosmos 1697 Rocket 4.1 22:48:05 10° NNW 22:52:28 32° NNE 22:52:28 32° NNE
USA 267 3.9 22:55:43 43° W 22:55:43 43° W 23:00:16 10° WNW
Cosmos 2344 3.8 23:18:51 10° NW 23:26:59 85° SW 23:27:14 84° SSW
Cosmos 1980 Rocket 3.5 23:48:19 10° NNW 23:52:13 35° NNE 23:52:13 35° NNE
